| time (UTC) | temp F | wind direction | speed MPH | gust MPH | rain 1hr in | rain 24hr in | rain mn in | humidity % | barometer mb |
| 20260506160719 | 70 | 203 | 5.0 | 10.0 | 0.00 | 0.00 | 0.00 | 64 | 1010.5 |
| 20260506154818 | 70 | 218 | 3.0 | 4.0 | 0.00 | 0.00 | 0.00 | 66 | 1010.8 |
| 20260506153821 | 70 | 243 | 2.0 | 5.0 | 0.00 | 0.00 | 0.00 | 65 | 1011.1 |
| 20260506152919 | 70 | 217 | 5.0 | 9.0 | 0.00 | 0.00 | 0.00 | 66 | 1011.2 |
| 20260506151920 | 70 | 229 | 8.0 | 14.0 | 0.00 | 0.00 | 0.00 | 67 | 1011.2 |
| 20260506151836 | 70 | 215 | 9.0 | 14.0 | 0.00 | 0.00 | 0.00 | 66 | 1011.1 |
| 20260506145819 | 69 | 223 | 2.0 | 5.0 | 0.00 | 0.00 | 0.00 | 67 | 1011.4 |
| 20260506144820 | 68 | 214 | 5.0 | 10.0 | 0.00 | 0.00 | 0.00 | 68 | 1011.6 |
| 20260506143820 | 68 | 243 | 2.0 | 4.0 | 0.00 | 0.00 | 0.00 | 68 | 1011.7 |
| 20260506142821 | 67 | 246 | 5.0 | 11.0 | 0.00 | 0.00 | 0.00 | 68 | 1011.6 |
| 20260506141820 | 67 | 219 | 3.0 | 7.0 | 0.00 | 0.00 | 0.00 | 68 | 1011.5 |
| 20260506140821 | 67 | 215 | 5.0 | 8.0 | 0.00 | 0.00 | 0.00 | 69 | 1011.6 |
| 20260506134922 | 66 | 214 | 5.0 | 9.0 | 0.00 | 0.00 | 0.00 | 69 | 1011.6 |
| 20260506132920 | 66 | 282 | 5.0 | 7.0 | 0.00 | 0.00 | 0.00 | 70 | 1011.8 |
| 20260506131920 | 65 | 209 | 5.0 | 8.0 | 0.00 | 0.00 | 0.00 | 70 | 1012.1 |
| 20260506130920 | 64 | 233 | 2.0 | 5.0 | 0.00 | 0.00 | 0.00 | 69 | 1012.3 |
| 20260506130018 | 64 | 221 | 4.0 | 10.0 | 0.00 | 0.00 | 0.00 | 70 | 1012.2 |
| 20260506124022 | 64 | 236 | 4.0 | 6.0 | 0.00 | 0.00 | 0.00 | 69 | 1012.4 |
| 20260506123020 | 63 | 212 | 5.0 | 7.0 | 0.00 | 0.00 | 0.00 | 70 | 1012.0 |
| 20260506122021 | 63 | 223 | 3.0 | 6.0 | 0.00 | 0.00 | 0.00 | 69 | 1012.3 |
| 20260506121021 | 63 | 238 | 3.0 | 7.0 | 0.00 | 0.00 | 0.00 | 69 | 1012.4 |
| 20260506120020 | 63 | 212 | 4.0 | 10.0 | 0.00 | 0.00 | 0.00 | 69 | 1012.1 |
| 20260506115021 | 62 | 230 | 3.0 | 11.0 | 0.00 | 0.00 | 0.00 | 68 | 1012.3 |
| 20260506114022 | 61 | 216 | 4.0 | 7.0 | 0.00 | 0.00 | 0.00 | 68 | 1012.4 |
| 20260506113020 | 61 | 202 | 2.0 | 4.0 | 0.00 | 0.00 | 0.00 | 67 | 1012.5 |
| 20260506112119 | 61 | 218 | 3.0 | 5.0 | 0.00 | 0.00 | 0.00 | 68 | 1012.8 |
| 20260506111119 | 60 | 223 | 2.0 | 7.0 | 0.00 | 0.00 | 0.00 | 66 | 1012.7 |
| 20260506110120 | 60 | 215 | 3.0 | 5.0 | 0.00 | 0.00 | 0.00 | 67 | 1012.4 |
| 20260506105119 | 60 | 245 | 3.0 | 5.0 | 0.00 | 0.00 | 0.00 | 66 | 1012.6 |
| 20260506104119 | 59 | 219 | 1.0 | 4.0 | 0.00 | 0.00 | 0.00 | 66 | 1012.6 |
| 20260506103120 | 59 | 214 | 2.0 | 4.0 | 0.00 | 0.00 | 0.00 | 66 | 1012.5 |
| 20260506100221 | 59 | 215 | 2.0 | 4.0 | 0.00 | 0.00 | 0.00 | 63 | 1012.5 |
| 20260506094221 | 59 | 222 | 2.0 | 4.0 | 0.00 | 0.00 | 0.00 | 62 | 1012.4 |
| 20260506093219 | 59 | 217 | 3.0 | 7.0 | 0.00 | 0.00 | 0.00 | 63 | 1012.3 |
| 20260506092221 | 59 | 218 | 3.0 | 6.0 | 0.00 | 0.00 | 0.00 | 61 | 1012.4 |
| 20260506091318 | 59 | 209 | 3.0 | 7.0 | 0.00 | 0.00 | 0.00 | 62 | 1012.5 |
| 20260506090320 | 59 | 225 | 1.0 | 3.0 | 0.00 | 0.00 | 0.00 | 61 | 1012.4 |
| 20260506085321 | 59 | 206 | 0.0 | 3.0 | 0.00 | 0.00 | 0.00 | 61 | 1012.3 |
| 20260506084418 | 59 | 204 | 1.0 | 2.0 | 0.00 | 0.00 | 0.00 | 60 | 1012.6 |
| 20260506083419 | 60 | 223 | 2.0 | 4.0 | 0.00 | 0.00 | 0.00 | 60 | 1012.5 |
| 20260506082422 | 60 | 233 | 5.0 | 10.0 | 0.00 | 0.00 | 0.00 | 60 | 1012.5 |
| 20260506081520 | 60 | 242 | 2.0 | 4.0 | 0.00 | 0.00 | 0.00 | 59 | 1012.5 |
| 20260506080535 | 60 | 216 | 4.0 | 7.0 | 0.00 | 0.00 | 0.00 | 58 | 1012.3 |
| 20260506072718 | 61 | 214 | 2.0 | 3.0 | 0.00 | 0.00 | 0.00 | 56 | 1012.4 |
| 20260506071720 | 61 | 221 | 3.0 | 6.0 | 0.00 | 0.00 | 0.00 | 56 | 1012.4 |
| 20260506070721 | 62 | 215 | 2.0 | 5.0 | 0.00 | 0.00 | 0.00 | 56 | 1012.2 |
| 20260506061919 | 63 | 208 | 4.0 | 9.0 | 0.00 | 0.00 | 0.00 | 53 | 1012.1 |
| 20260506060922 | 63 | 212 | 4.0 | 7.0 | 0.00 | 0.00 | 0.00 | 53 | 1012.0 |
| 20260506051021 | 63 | 223 | 3.0 | 4.0 | 0.00 | 0.00 | 0.00 | 51 | 1012.2 |
| 20260506045119 | 63 | 232 | 5.0 | 12.0 | 0.00 | 0.00 | 0.00 | 50 | 1012.3 |
| 20260506043120 | 63 | 222 | 5.0 | 13.0 | 0.00 | 0.00 | 0.00 | 50 | 1012.3 |
| 20260506042119 | 63 | 201 | 2.0 | 5.0 | 0.00 | 0.00 | 0.00 | 49 | 1012.4 |
| 20260506041122 | 63 | 216 | 3.0 | 5.0 | 0.00 | 0.00 | 0.00 | 49 | 1012.4 |
| 20260506040219 | 63 | 222 | 3.0 | 7.0 | 0.00 | 0.00 | 0.00 | 48 | 1012.4 |
| 20260506034231 | 62 | 215 | 4.0 | 6.0 | 0.00 | 0.00 | 0.00 | 48 | 1012.4 |
| 20260506033231 | 62 | 215 | 1.0 | 3.0 | 0.00 | 0.00 | 0.00 | 46 | 1012.4 |
| 20260506032248 | 62 | 261 | 1.0 | 4.0 | 0.00 | 0.00 | 0.00 | 47 | 1012.4 |
| 20260506031229 | 62 | 207 | 6.0 | 9.0 | 0.00 | 0.00 | 0.00 | 45 | 1012.4 |
| 20260506030328 | 62 | 229 | 2.0 | 7.0 | 0.00 | 0.00 | 0.00 | 46 | 1012.5 |
| 20260506025331 | 63 | 218 | 1.0 | 4.0 | 0.00 | 0.00 | 0.00 | 45 | 1012.4 |
| 20260506024328 | 63 | 211 | 5.0 | 11.0 | 0.00 | 0.00 | 0.00 | 45 | 1012.3 |
| 20260506023329 | 64 | 218 | 3.0 | 7.0 | 0.00 | 0.00 | 0.00 | 44 | 1012.4 |
| 20260506022329 | 64 | 218 | 2.0 | 5.0 | 0.00 | 0.00 | 0.00 | 43 | 1012.5 |
| 20260506021341 | 64 | 230 | 3.0 | 6.0 | 0.00 | 0.00 | 0.00 | 43 | 1012.4 |
| 20260506020429 | 64 | 241 | 2.0 | 5.0 | 0.00 | 0.00 | 0.00 | 42 | 1012.4 |
| 20260506015529 | 65 | 244 | 1.0 | 2.0 | 0.00 | 0.00 | 0.00 | 42 | 1012.2 |
| 20260506014531 | 65 | 216 | 5.0 | 10.0 | 0.00 | 0.00 | 0.00 | 42 | 1012.1 |
| 20260506013629 | 65 | 219 | 3.0 | 8.0 | 0.00 | 0.00 | 0.00 | 42 | 1012.1 |
| 20260506012630 | 66 | 210 | 3.0 | 5.0 | 0.00 | 0.00 | 0.00 | 42 | 1011.8 |
| 20260506011630 | 66 | 219 | 4.0 | 11.0 | 0.00 | 0.00 | 0.00 | 41 | 1011.7 |
| 20260506010630 | 67 | 244 | 4.0 | 8.0 | 0.00 | 0.00 | 0.00 | 40 | 1011.7 |
| 20260506005632 | 67 | 249 | 2.0 | 4.0 | 0.00 | 0.00 | 0.00 | 40 | 1011.4 |
| 20260506004629 | 67 | 212 | 7.0 | 9.0 | 0.00 | 0.00 | 0.00 | 39 | 1011.4 |
| 20260506003630 | 68 | 226 | 3.0 | 9.0 | 0.00 | 0.00 | 0.00 | 39 | 1011.1 |
| 20260506002728 | 69 | 215 | 4.0 | 8.0 | 0.00 | 0.00 | 0.00 | 39 | 1011.0 |
| 20260506001731 | 69 | 214 | 3.0 | 6.0 | 0.00 | 0.00 | 0.00 | 39 | 1010.9 |
| 20260506000730 | 70 | 217 | 4.0 | 7.0 | 0.00 | 0.00 | 0.00 | 39 | 1010.6 |
| 20260505235730 | 70 | 226 | 4.0 | 7.0 | 0.00 | 0.00 | 0.00 | 39 | 1010.2 |
| 20260505234732 | 70 | 238 | 6.0 | 10.0 | 0.00 | 0.00 | 0.00 | 38 | 1010.0 |
| 20260505233729 | 71 | 228 | 4.0 | 11.0 | 0.00 | 0.00 | 0.00 | 37 | 1009.9 |
| 20260505232730 | 71 | 209 | 4.0 | 11.0 | 0.00 | 0.00 | 0.00 | 38 | 1009.8 |
| 20260505231731 | 72 | 208 | 5.0 | 10.0 | 0.00 | 0.00 | 0.00 | 37 | 1009.7 |
| 20260505230730 | 72 | 220 | 3.0 | 6.0 | 0.00 | 0.00 | 0.00 | 37 | 1009.7 |
| 20260505224831 | 73 | 219 | 4.0 | 8.0 | 0.00 | 0.00 | 0.00 | 37 | 1009.4 |
| 20260505223930 | 74 | 226 | 4.0 | 9.0 | 0.00 | 0.00 | 0.00 | 36 | 1009.1 |
| 20260505223029 | 75 | 237 | 4.0 | 9.0 | 0.00 | 0.00 | 0.00 | 37 | 1009.0 |
| 20260505222029 | 76 | 208 | 7.0 | 14.0 | 0.00 | 0.00 | 0.00 | 37 | 1008.8 |
| 20260505221928 | 76 | 232 | 6.0 | 11.0 | 0.00 | 0.00 | 0.00 | 36 | 1008.8 |
| 20260505220930 | 76 | 249 | 7.0 | 14.0 | 0.00 | 0.00 | 0.00 | 36 | 1008.4 |
| 20260505215930 | 77 | 204 | 5.0 | 9.0 | 0.00 | 0.00 | 0.00 | 36 | 1008.5 |
| 20260505214930 | 77 | 237 | 4.0 | 12.0 | 0.00 | 0.00 | 0.00 | 37 | 1008.8 |
| 20260505213930 | 78 | 241 | 5.0 | 10.0 | 0.00 | 0.00 | 0.00 | 37 | 1008.8 |
| 20260505213028 | 78 | 236 | 9.0 | 16.0 | 0.00 | 0.00 | 0.00 | 37 | 1008.5 |
| 20260505212029 | 79 | 221 | 7.0 | 12.0 | 0.00 | 0.00 | 0.00 | 37 | 1008.2 |
| 20260505211030 | 80 | 227 | 6.0 | 11.0 | 0.00 | 0.00 | 0.00 | 38 | 1008.1 |
| 20260505210029 | 80 | 237 | 7.0 | 13.0 | 0.00 | 0.00 | 0.00 | 38 | 1007.7 |
| 20260505205032 | 81 | 223 | 9.0 | 16.0 | 0.00 | 0.00 | 0.00 | 38 | 1008.0 |
| 20260505204028 | 81 | 234 | 6.0 | 13.0 | 0.00 | 0.00 | 0.00 | 38 | 1007.8 |
| 20260505203032 | 81 | 223 | 8.0 | 12.0 | 0.00 | 0.00 | 0.00 | 39 | 1007.6 |
| 20260505202029 | 81 | 242 | 8.0 | 17.0 | 0.00 | 0.00 | 0.00 | 39 | 1007.8 |
| 20260505201030 | 81 | 245 | 2.0 | 5.0 | 0.00 | 0.00 | 0.00 | 40 | 1007.9 |
| 20260505195030 | 81 | 226 | 7.0 | 13.0 | 0.00 | 0.00 | 0.00 | 41 | 1008.1 |
| 20260505194030 | 82 | 245 | 5.0 | 9.0 | 0.00 | 0.00 | 0.00 | 42 | 1008.0 |
| 20260505193029 | 81 | 218 | 9.0 | 13.0 | 0.00 | 0.00 | 0.00 | 42 | 1008.0 |
| 20260505185128 | 81 | 216 | 10.0 | 15.0 | 0.00 | 0.00 | 0.00 | 45 | 1008.5 |
| 20260505184129 | 81 | 226 | 6.0 | 10.0 | 0.00 | 0.00 | 0.00 | 45 | 1008.7 |
| 20260505182230 | 81 | 219 | 6.0 | 9.0 | 0.00 | 0.00 | 0.00 | 45 | 1009.1 |
| 20260505181230 | 81 | 215 | 9.0 | 15.0 | 0.00 | 0.00 | 0.00 | 47 | 1009.2 |
| 20260505180329 | 81 | 220 | 10.0 | 16.0 | 0.00 | 0.00 | 0.00 | 47 | 1009.4 |
| 20260505174329 | 80 | 241 | 9.0 | 19.0 | 0.00 | 0.00 | 0.00 | 49 | 1009.3 |
| 20260505173429 | 79 | 249 | 4.0 | 9.0 | 0.00 | 0.00 | 0.00 | 50 | 1009.7 |
| 20260505172429 | 79 | 216 | 6.0 | 13.0 | 0.00 | 0.00 | 0.00 | 50 | 1010.0 |
| 20260505171429 | 79 | 232 | 6.0 | 11.0 | 0.00 | 0.00 | 0.00 | 51 | 1010.1 |
| 20260505170430 | 79 | 221 | 8.0 | 15.0 | 0.00 | 0.00 | 0.00 | 52 | 1010.1 |
| 20260505165430 | 78 | 225 | 6.0 | 13.0 | 0.00 | 0.00 | 0.00 | 52 | 1010.3 |
| 20260505164429 | 77 | 214 | 3.0 | 6.0 | 0.00 | 0.00 | 0.00 | 54 | 1010.5 |
| 20260505163429 | 76 | 205 | 4.0 | 6.0 | 0.00 | 0.00 | 0.00 | 54 | 1010.8 |